Time,TemperatureF,DewpointF,PressureIn,WindDirection,WindDirectionDegrees,WindSpeedMPH,WindSpeedGustMPH,Humidity,HourlyPrecipIn,Conditions,Clouds,dailyrainin,SoftwareType,DateUTC
2013-06-28 00:01:00,72.0,35.2,29.53,East,90,0.0,-999.0,26,-99.99,,,0.00,Acu-Link.com,2013-06-28 05:01:00,
2013-06-28 00:16:00,72.1,45.8,29.55,East,90,0.0,-999.0,39,-99.99,,,0.00,Acu-Link.com,2013-06-28 05:16:00,
2013-06-28 00:31:00,72.1,45.8,29.55,East,90,0.0,-999.0,39,-99.99,,,0.00,Acu-Link.com,2013-06-28 05:31:00,
2013-06-28 00:46:00,72.1,50.7,29.55,East,90,0.0,-999.0,47,-99.99,,,0.00,Acu-Link.com,2013-06-28 05:46:00,
2013-06-28 01:01:00,72.0,50.1,29.55,East,90,0.0,-999.0,46,-99.99,,,0.00,Acu-Link.com,2013-06-28 06:01:00,
2013-06-28 01:16:00,72.0,50.7,29.56,East,90,0.0,-999.0,47,-99.99,,,0.00,Acu-Link.com,2013-06-28 06:16:00,
2013-06-28 01:32:00,71.8,51.6,29.55,East,90,0.0,-999.0,49,-99.99,,,0.00,Acu-Link.com,2013-06-28 06:32:00,
2013-06-28 01:47:00,71.4,51.2,29.55,East,90,0.0,-999.0,49,-99.99,,,0.00,Acu-Link.com,2013-06-28 06:47:00,
2013-06-28 02:02:00,71.2,51.6,29.54,East,90,0.0,-999.0,50,-99.99,,,0.00,Acu-Link.com,2013-06-28 07:02:00,
2013-06-28 02:17:00,70.9,50.2,29.54,East,90,0.0,-999.0,48,-99.99,,,0.00,Acu-Link.com,2013-06-28 07:17:00,
2013-06-28 02:32:00,70.9,50.8,29.54,East,90,0.0,-999.0,49,-99.99,,,0.00,Acu-Link.com,2013-06-28 07:32:00,
2013-06-28 02:47:00,70.9,50.2,29.54,East,90,0.0,-999.0,48,-99.99,,,0.00,Acu-Link.com,2013-06-28 07:47:00,
2013-06-28 03:03:00,70.5,49.9,29.54,East,90,0.0,-999.0,48,-99.99,,,0.00,Acu-Link.com,2013-06-28 08:03:00,
2013-06-28 03:18:00,70.5,49.9,29.54,East,90,0.0,-999.0,48,-99.99,,,0.00,Acu-Link.com,2013-06-28 08:18:00,
2013-06-28 03:34:00,70.9,51.3,29.53,East,90,0.0,-999.0,50,-99.99,,,0.00,Acu-Link.com,2013-06-28 08:34:00,
2013-06-28 03:49:00,71.1,51.5,29.52,East,90,0.0,-999.0,50,-99.99,,,0.00,Acu-Link.com,2013-06-28 08:49:00,
2013-06-28 04:04:00,70.9,51.3,29.52,East,90,0.0,-999.0,50,-99.99,,,0.00,Acu-Link.com,2013-06-28 09:04:00,
2013-06-28 04:19:00,70.9,51.3,29.50,East,90,0.0,-999.0,50,-99.99,,,0.00,Acu-Link.com,2013-06-28 09:19:00,
2013-06-28 04:34:00,70.7,51.1,29.50,East,90,0.0,-999.0,50,-99.99,,,0.00,Acu-Link.com,2013-06-28 09:34:00,
2013-06-28 04:50:00,70.2,49.0,29.50,East,90,0.0,-999.0,47,-99.99,,,0.00,Acu-Link.com,2013-06-28 09:50:00,
2013-06-28 05:05:00,69.3,47.6,29.50,East,90,0.0,-999.0,46,-99.99,,,0.00,Acu-Link.com,2013-06-28 10:05:00,
2013-06-28 05:20:00,69.3,48.8,29.51,East,90,0.0,-999.0,48,-99.99,,,0.00,Acu-Link.com,2013-06-28 10:20:00,
2013-06-28 05:35:00,69.3,48.2,29.50,East,90,0.0,-999.0,47,-99.99,,,0.00,Acu-Link.com,2013-06-28 10:35:00,
2013-06-28 05:50:00,69.6,49.6,29.50,East,90,0.0,-999.0,49,-99.99,,,0.00,Acu-Link.com,2013-06-28 10:50:00,
2013-06-28 06:05:00,70.3,50.2,29.50,East,90,0.0,-999.0,49,-99.99,,,0.00,Acu-Link.com,2013-06-28 11:05:00,
2013-06-28 06:20:00,70.5,51.0,29.50,East,90,0.0,-999.0,50,-99.99,,,0.00,Acu-Link.com,2013-06-28 11:20:00,
2013-06-28 06:35:00,71.8,52.1,29.50,East,90,0.0,-999.0,50,-99.99,,,0.00,Acu-Link.com,2013-06-28 11:35:00,
2013-06-28 06:50:00,72.7,53.5,29.50,East,90,0.0,-999.0,51,-99.99,,,0.00,Acu-Link.com,2013-06-28 11:50:00,
2013-06-28 07:05:00,73.8,49.3,29.49,East,90,0.0,-999.0,42,-99.99,,,0.00,Acu-Link.com,2013-06-28 12:05:00,
2013-06-28 07:21:00,74.8,52.6,29.51,East,90,0.0,-999.0,46,-99.99,,,0.00,Acu-Link.com,2013-06-28 12:21:00,
2013-06-28 07:36:00,75.2,55.8,29.51,West,270,1.7,-999.0,51,-99.99,,,0.00,Acu-Link.com,2013-06-28 12:36:00,
2013-06-28 07:51:00,77.7,77.1,29.51,WNW,292,0.0,-999.0,98,-99.99,,,0.00,Acu-Link.com,2013-06-28 12:51:00,
2013-06-28 08:06:00,78.1,77.5,29.53,West,270,0.0,-999.0,98,-99.99,,,0.00,Acu-Link.com,2013-06-28 13:06:00,
2013-06-28 08:21:00,78.6,78.0,29.52,West,270,0.0,-999.0,98,-99.99,,,0.00,Acu-Link.com,2013-06-28 13:21:00,
2013-06-28 08:36:00,78.1,77.5,29.51,West,270,5.8,-999.0,98,-99.99,,,0.00,Acu-Link.com,2013-06-28 13:36:00,
2013-06-28 08:51:00,78.8,78.2,29.51,WNW,292,2.2,-999.0,98,-99.99,,,0.00,Acu-Link.com,2013-06-28 13:51:00,
2013-06-28 09:06:00,79.0,78.4,29.50,WNW,292,0.0,-999.0,98,-99.99,,,0.00,Acu-Link.com,2013-06-28 14:06:00,
2013-06-28 09:21:00,80.8,80.5,29.49,West,270,3.7,-999.0,99,-99.99,,,0.00,Acu-Link.com,2013-06-28 14:21:00,
2013-06-28 09:37:00,81.0,80.7,29.49,WNW,292,0.0,-999.0,99,-99.99,,,0.00,Acu-Link.com,2013-06-28 14:37:00,
2013-06-28 09:52:00,84.6,84.3,29.49,WNW,292,0.0,-999.0,99,-99.99,,,0.00,Acu-Link.com,2013-06-28 14:52:00,
2013-06-28 10:07:00,84.7,84.4,29.48,SSW,202,0.0,-999.0,99,-99.99,,,0.00,Acu-Link.com,2013-06-28 15:07:00,
2013-06-28 10:22:00,84.9,84.6,29.48,NW,315,6.3,-999.0,99,-99.99,,,0.00,Acu-Link.com,2013-06-28 15:22:00,
2013-06-28 10:37:00,84.6,84.3,29.48,WNW,292,1.1,-999.0,99,-99.99,,,0.00,Acu-Link.com,2013-06-28 15:37:00,
2013-06-28 10:52:00,84.7,84.4,29.50,WNW,292,3.2,-999.0,99,-99.99,,,0.00,Acu-Link.com,2013-06-28 15:52:00,
2013-06-28 11:07:00,82.6,82.3,29.52,South,180,0.0,-999.0,99,-99.99,,,0.00,Acu-Link.com,2013-06-28 16:07:00,
2013-06-28 11:22:00,82.6,82.3,29.51,West,270,3.7,-999.0,99,-99.99,,,0.00,Acu-Link.com,2013-06-28 16:22:00,
2013-06-28 11:38:00,82.0,81.7,29.52,West,270,0.0,-999.0,99,-99.99,,,0.00,Acu-Link.com,2013-06-28 16:38:00,
2013-06-28 11:53:00,83.3,83.0,29.51,NNW,337,4.7,-999.0,99,-99.99,,,0.00,Acu-Link.com,2013-06-28 16:53:00,
2013-06-28 12:08:00,86.5,83.2,29.50,West,270,5.8,-999.0,90,-99.99,,,0.00,Acu-Link.com,2013-06-28 17:08:00,
2013-06-28 12:23:00,88.7,84.0,29.49,SW,225,4.2,-999.0,86,-99.99,,,0.00,Acu-Link.com,2013-06-28 17:23:00,
2013-06-28 12:38:00,89.2,82.2,29.49,WNW,292,7.8,-999.0,80,-99.99,,,0.00,Acu-Link.com,2013-06-28 17:38:00,
2013-06-28 12:53:00,88.7,84.3,29.48,West,270,3.7,-999.0,87,-99.99,,,0.00,Acu-Link.com,2013-06-28 17:53:00,
2013-06-28 13:08:00,88.0,83.6,29.47,NW,315,5.3,-999.0,87,-99.99,,,0.00,Acu-Link.com,2013-06-28 18:08:00,
2013-06-28 13:23:00,88.9,83.8,29.47,West,270,1.7,-999.0,85,-99.99,,,0.00,Acu-Link.com,2013-06-28 18:23:00,
2013-06-28 13:39:00,89.1,80.9,29.48,West,270,6.8,-999.0,77,-99.99,,,0.00,Acu-Link.com,2013-06-28 18:39:00,
2013-06-28 13:54:00,87.8,80.5,29.47,West,270,5.8,-999.0,79,-99.99,,,0.00,Acu-Link.com,2013-06-28 18:54:00,
2013-06-28 14:09:00,89.2,80.6,29.44,WNW,292,5.3,-999.0,76,-99.99,,,0.00,Acu-Link.com,2013-06-28 19:09:00,
2013-06-28 14:24:00,90.5,84.2,29.45,SE,135,0.0,-999.0,82,-99.99,,,0.00,Acu-Link.com,2013-06-28 19:24:00,
2013-06-28 14:39:00,90.1,83.1,29.44,West,270,6.3,-999.0,80,-99.99,,,0.00,Acu-Link.com,2013-06-28 19:39:00,
2013-06-28 14:54:00,91.2,81.7,29.43,SSE,157,3.2,-999.0,74,-99.99,,,0.00,Acu-Link.com,2013-06-28 19:54:00,
2013-06-28 15:09:00,90.5,81.5,29.42,West,270,6.8,-999.0,75,-99.99,,,0.00,Acu-Link.com,2013-06-28 20:09:00,
2013-06-28 15:24:00,86.4,82.8,29.43,South,180,5.3,-999.0,89,-99.99,,,0.00,Acu-Link.com,2013-06-28 20:24:00,
2013-06-28 15:39:00,88.2,81.6,29.41,WSW,247,4.2,-999.0,81,-99.99,,,0.00,Acu-Link.com,2013-06-28 20:39:00,
2013-06-28 15:55:00,85.5,81.2,29.42,SW,225,1.1,-999.0,87,-99.99,,,0.00,Acu-Link.com,2013-06-28 20:55:00,
2013-06-28 16:10:00,85.8,80.8,29.41,NW,315,3.7,-999.0,85,-99.99,,,0.00,Acu-Link.com,2013-06-28 21:10:00,
2013-06-28 16:25:00,87.4,80.1,29.40,West,270,4.2,-999.0,79,-99.99,,,0.00,Acu-Link.com,2013-06-28 21:25:00,
2013-06-28 16:40:00,89.8,81.2,29.40,West,270,0.0,-999.0,76,-99.99,,,0.00,Acu-Link.com,2013-06-28 21:40:00,
2013-06-28 16:55:00,90.9,78.8,29.41,West,270,7.3,-999.0,68,-99.99,,,0.00,Acu-Link.com,2013-06-28 21:55:00,
2013-06-28 17:10:00,90.3,79.2,29.40,West,270,8.3,-999.0,70,-99.99,,,0.00,Acu-Link.com,2013-06-28 22:10:00,
2013-06-28 17:25:00,89.6,78.0,29.39,WSW,247,3.7,-999.0,69,-99.99,,,0.00,Acu-Link.com,2013-06-28 22:25:00,
2013-06-28 17:40:00,87.4,78.9,29.40,NE,45,0.0,-999.0,76,-99.99,,,0.00,Acu-Link.com,2013-06-28 22:40:00,
2013-06-28 17:55:00,87.8,78.0,29.38,West,270,3.2,-999.0,73,-99.99,,,0.00,Acu-Link.com,2013-06-28 22:55:00,
2013-06-28 18:11:00,89.8,78.7,29.38,West,270,10.4,-999.0,70,-99.99,,,0.00,Acu-Link.com,2013-06-28 23:11:00,
2013-06-28 18:26:00,88.3,77.2,29.38,West,270,1.7,-999.0,70,-99.99,,,0.00,Acu-Link.com,2013-06-28 23:26:00,
2013-06-28 18:41:00,87.4,78.9,29.38,South,180,0.0,-999.0,76,-99.99,,,0.00,Acu-Link.com,2013-06-28 23:41:00,
2013-06-28 18:56:00,89.2,78.1,29.38,SSE,157,0.0,-999.0,70,-99.99,,,0.00,Acu-Link.com,2013-06-28 23:56:00,
2013-06-28 19:11:00,86.7,79.0,29.38,WNW,292,0.0,-999.0,78,-99.99,,,0.00,Acu-Link.com,2013-06-29 00:11:00,
2013-06-28 19:26:00,87.4,78.5,29.39,NE,45,0.0,-999.0,75,-99.99,,,0.00,Acu-Link.com,2013-06-29 00:26:00,
2013-06-28 19:41:00,86.7,78.2,29.38,SSE,157,0.0,-999.0,76,-99.99,,,0.00,Acu-Link.com,2013-06-29 00:41:00,
2013-06-28 19:56:00,83.1,77.7,29.40,West,270,0.0,-999.0,84,-99.99,,,0.00,Acu-Link.com,2013-06-29 00:56:00,
2013-06-28 20:11:00,79.9,78.0,29.38,West,270,0.0,-999.0,94,-99.99,,,0.00,Acu-Link.com,2013-06-29 01:11:00,
2013-06-28 20:27:00,78.1,77.8,29.39,South,180,0.0,-999.0,99,-99.99,,,0.00,Acu-Link.com,2013-06-29 01:27:00,
2013-06-28 20:42:00,79.3,75.1,29.39,West,270,4.7,-999.0,87,-99.99,,,0.00,Acu-Link.com,2013-06-29 01:42:00,
2013-06-28 20:57:00,79.7,73.7,29.40,WNW,292,2.7,-999.0,82,-99.99,,,0.00,Acu-Link.com,2013-06-29 01:57:00,
2013-06-28 21:12:00,79.0,72.7,29.40,WSW,247,3.7,-999.0,81,-99.99,,,0.00,Acu-Link.com,2013-06-29 02:12:00,
2013-06-28 21:27:00,78.3,72.3,29.41,WNW,292,2.2,-999.0,82,-99.99,,,0.00,Acu-Link.com,2013-06-29 02:27:00,
2013-06-28 21:42:00,77.9,72.7,29.42,West,270,3.7,-999.0,84,-99.99,,,0.00,Acu-Link.com,2013-06-29 02:42:00,
2013-06-28 21:57:00,77.0,72.8,29.43,West,270,0.0,-999.0,87,-99.99,,,0.00,Acu-Link.com,2013-06-29 02:57:00,
2013-06-28 22:12:00,75.4,73.5,29.43,West,270,0.0,-999.0,94,-99.99,,,0.00,Acu-Link.com,2013-06-29 03:12:00,
2013-06-28 22:27:00,73.0,72.7,29.43,West,270,0.0,-999.0,99,-99.99,,,0.00,Acu-Link.com,2013-06-29 03:27:00,
2013-06-28 22:43:00,71.4,71.1,29.43,West,270,0.0,-999.0,99,-99.99,,,0.00,Acu-Link.com,2013-06-29 03:43:00,
2013-06-28 22:58:00,70.0,69.7,29.44,West,270,0.0,-999.0,99,-99.99,,,0.00,Acu-Link.com,2013-06-29 03:58:00,
2013-06-28 23:13:00,68.2,67.9,29.42,West,270,0.0,-999.0,99,-99.99,,,0.00,Acu-Link.com,2013-06-29 04:13:00,
2013-06-28 23:28:00,67.5,67.2,29.42,West,270,0.0,-999.0,99,-99.99,,,0.00,Acu-Link.com,2013-06-29 04:28:00,
2013-06-28 23:43:00,66.4,66.1,29.42,West,270,0.0,-999.0,99,-99.99,,,0.00,Acu-Link.com,2013-06-29 04:43:00,
2013-06-28 23:58:00,65.5,65.2,29.42,West,270,0.0,-999.0,99,-99.99,,,0.00,Acu-Link.com,2013-06-29 04:58:00,